Regional Weather Roundup
Issued by NWS Upton, NY

Current Version | Previous Version | Text Only | Print | Product List | Glossary On
Versions: 1 2 3 4 5 6 7 8 9 10 11 12 13 14 15 16 17 18 19 20 21 22 23 24 25 26 27
000 ASUS41 KOKX 160708 RWROKX REGIONAL WEATHER ROUNDUP NATIONAL WEATHER SERVICE NEW YORK NY 200 AM EST SAT DEC 16 2017 NOTE: "FAIR" INDICATES FEW OR NO CLOUDS BELOW 12,000 FEET WITH NO SIGNIFICANT WEATHER AND/OR OBSTRUCTIONS TO VISIBILITY. NYZ071-072-176-178-NJZ106-104-160800- NEW YORK CITY METRO AREA CITY SKY/WX TMP DP RH WIND PRES REMARKS Central Park CLEAR 23 17 78 MISG 29.93R Bronx Bot Gard N/A 25 18 74 SW7 29.93R WCI 17 Bronx Lehman C N/A 25 19 80 W8 N/A WCI 16 LaGuardia APRT PTCLDY 26 18 71 W18G26 29.92R WCI 13 Queens College N/A 27 19 74 W13 N/A WCI 16 Kennedy INTL PTCLDY 25 19 78 W12 29.94R WCI 14 Breezy Point N/A N/A N/A N/A W18G29 N/A Brooklyn Coll N/A 27 21 80 W12 N/A WCI 16 Staten Island N/A 23 19 86 W8 N/A WCI 14 Newark/Liberty PTCLDY 22 18 85 W14 29.94R WCI 9 Teterboro CLEAR 20 16 84 SW5 29.92R WCI 13 $$ NYZ177-179-078>081-160800- LONG ISLAND NEW YORK CITY SKY/WX TMP DP RH WIND PRES REMARKS Jones Beach N/A N/A N/A N/A W15 N/A Wantagh N/A 25 19 80 W8 N/A WCI 16 Matinecock PT N/A N/A N/A N/A W23 N/A Farmingdale CLEAR 20 17 88 W5 29.92R WCI 13 MacArthur/ISP CLEAR 18 16 92 W6 29.90R WCI 10 Shirley CLEAR 21 18 88 W7 29.91R WCI 12 Mt Sinai Harb N/A N/A N/A N/A W8G14 N/A Westhampton CLEAR 17 14 88 W8 29.91R WCI 7 East Hampton FAIR 26 20 76 W10G17 29.87R WCI 17 Southold N/A 28 21 74 W12 N/A WCI 18 Montauk N/A 30 22 72 W14G26 29.86R WCI 19 $$ NYZ052-065-067-160800- HUDSON VALLEY CITY SKY/WX TMP DP RH WIND PRES REMARKS White Plains CLEAR 18 16 92 W3 29.87R Larchmont Harb N/A N/A N/A N/A SW14 N/A Croton On Huds N/A N/A N/A N/A CALM N/A Somers N/A 18 16 93 W5 N/A WCI 11 Brewster N/A 18 16 93 W2 N/A Newburgh NOT AVBL Montgomery FLURRIES 10 8 92 S5 29.87R WCI 2 Otisville N/A 18 14 86 SW3 N/A Warwick N/A 21 16 79 W8 N/A WCI 12 Suffern N/A 23 16 74 W9 N/A WCI 13 Poughkeepsie PTCLDY 18 14 84 SW5 29.89R WCI 11 Albany CLOUDY 20 15 81 S10 29.83S WCI 9 $$ NJZ001-105-106-008-010-013-015-019>022-104-160800- NEW JERSEY CITY SKY/WX TMP DP RH WIND PRES REMARKS Newark/Liberty PTCLDY 22 18 85 W14 29.94R WCI 9 Teterboro CLEAR 20 16 84 SW5 29.92R WCI 13 Caldwell CLEAR 17 15 92 S3 29.93R Somerville CLEAR 9 6 88 CALM 29.94R Linden FAIR 22 18 85 W9 29.94R WCI 12 Perth Amboy N/A N/A N/A N/A W8 N/A Sussex CLEAR 14 13 95 SW6 29.89R WCI 5 Andover NOT AVBL Trenton CLEAR 20 17 88 W5 29.97R FOG WCI 13 Millville CLEAR 20 19 96 W7 30.03R FOG WCI 11 Atlantic City CLEAR 24 21 88 W12 30.00R WCI 13 Wrightstown CLEAR 18 16 91 SW8 29.95R WCI 8 Toms River CLEAR 16 14 92 SW7 29.99R WCI 6 Belmar CLEAR 18 16 92 SW8 29.96R WCI 8 $$ PAZ047>061-062-071-160800- EASTERN PENNSYLVANIA CITY SKY/WX TMP DP RH WIND PRES REMARKS Philadelphia PTCLDY 22 17 81 W12 30.02R WCI 10 Allentown CLEAR 19 14 81 SW10 29.94R WCI 7 Scranton PTCLDY 19 15 84 SW5 29.89R WCI 12 $$ CTZ002-004>006-009-010-012-RIZ004-006-007-MAZ004-011-015-160800- SOUTHERN NEW ENGLAND IN CT CITY SKY/WX TMP DP RH WIND PRES REMARKS Bradley INTL MOCLDY 19 14 81 SW6 29.85R WCI 11 Hartford CLEAR 21 16 81 VRB5 29.86S WCI 15 Danbury FLURRIES 10 8 92 SW7 29.87R WCI -1 Wtrbury/Oxford CLEAR 16 14 92 W5 29.84R WCI 9 Norwalk Harbor N/A N/A N/A N/A W12 N/A Bridgeport CLEAR 22 17 81 W8 29.89R WCI 12 Meriden CLEAR 18 14 84 W6 29.87R WCI 10 New Haven CLEAR 23 17 78 W6 29.89R WCI 16 Chester FAIR 21 16 79 W6 29.84R WCI 14 Groton PTCLDY 23 17 78 W9 29.86R WCI 13 Wilimantic PTCLDY 21 16 81 W3 29.85R IN RI CITY SKY/WX TMP DP RH WIND PRES REMARKS Providence CLOUDY 23 19 85 W10 29.83R WCI 12 Block Island FLURRIES 25 20 81 NW14G26 29.85R WCI 13 Westerly MOCLDY 22 19 89 VRB3 29.85R IN MA CITY SKY/WX TMP DP RH WIND PRES REMARKS Boston CLOUDY 24 16 71 W12 29.80R WCI 13 Worcester CLEAR 17 13 84 W13 29.74S WCI 4 Westfield MOCLDY 21 15 78 W5 29.83R WCI 15 Provincetown FLURRIES 28 24 85 NW15G25 29.79R WCI 16 Nantucket LGT SNOW 30 30 100 NW15 29.78R FOG WCI 19 $$ ANZ330-335-338-340-345-350-353-355-160800- COASTAL MARINE OBSERVATIONS STATION/POSITION TIME SKY/WX TEMP WIND PRES VSBY WAVE AIR SEA DIR/SP/G HT/PER (UTC) (F) (DEG/KT/KT) (MB) (MI) (FT/S) NY HARB ENTRANCE 0550 29 50 270/ 19/ 23 1012.7 3/ 3 20 S FIRE ISLAND 0550 33 51 290/ 23/ 29 1012.4 5/ 5 GREAT SOUTH BAY NOT AVBL HUDSON CANYON 0650 38 56 300/ 29/ 35 1012.5 8/ 6 KINGS POINT 0630 26 42 310/ 14/ 17 1013.6 EXECUTION ROCKS 0630 27 240/ 14/ 17 N/A WESTERN LI SOUND NOT AVBL CENTRAL LI SOUND 0600 29 280/ 21/ 27 N/A 4 ROBBINS REEF 0648 24 260/ 15/ 17 1014.0 $$ >>>>>>>>>>>>>>>>>>>>>>>>>>>> KEY <<<<<<<<<<<<<<<<<<<<<<<<<<< > < > SKY/WX - Sky Condition/Present Weather < > TMP - Temperature in Fahrenheit < > DP - Dew Point in Fahrenheit < > RH - Relative Humidity in Percent < > WIND - Direction (from) and Speed in MPH < > PRES - Mean Sea Level Pressure (inches of Hg) < > WCI - Wind Chill Index < > VSB - VISIBILITY IN MILES < > HX - HEAT INDEX < > TC - TEMPERATURE IN CELSIUS < > VRB - VARIABLE WIND DIRECTION < > < >>>>>>>>>>>>>>>>>>>>>>>>>>>> KEY <<<<<<<<<<<<<<<<<<<<<<<<<<<

USA.gov is the U.S. government's official web portal to all federal, state and local government web resources and services.